Theta_e
318 316 322 319 320 316 317 315 313 315 317 319 320 324 327 324 323 327 321 322 327 329 331 334 334 334 335 334 334 334 334 335 337 338 338 337 337 336 337 338 338 338 338 338 337 338 339 334 336
323 320 320 320 317 317 315 313 314 316 321 321 323 323 325 325 315 317 315 323 328 328 330 332 332 332 332 332 332 333 333 333 334 334 335 334 334 333 333 333 333 335 335 336 336 336 337 336 334
321 318 319 318 318 317 315 316 315 318 319 322 323 323 323 323 314 314 315 323 326 326 329 331 331 331 331 331 331 331 330 330 331 331 331 331 331 330 329 329 329 331 331 332 332 333 334 334 332
319 317 316 317 316 315 315 314 316 316 316 318 321 323 318 313 315 314 314 322 323 323 327 331 330 329 329 329 329 329 329 329 329 329 328 327 327 326 325 325 325 325 326 327 326 327 330 331 330
317 317 316 315 315 314 314 314 314 314 316 316 318 320 317 309 312 314 319 323 320 322 327 328 328 328 327 327 326 327 327 327 326 326 325 324 323 323 322 321 321 322 322 322 324 324 323 329 332
319 317 318 318 317 315 315 314 313 314 313 315 317 318 311 308 310 315 318 319 320 324 326 327 328 327 326 325 325 325 325 325 323 322 321 320 320 319 318 318 318 318 318 318 318 318 321 327 330
318 318 317 317 317 317 318 317 315 313 313 314 317 318 307 306 310 315 317 318 318 323 325 325 325 325 325 323 323 323 322 322 320 318 317 316 315 315 314 313 313 312 311 312 313 314 315 322 327
319 319 321 319 319 320 318 317 315 315 316 316 316 317 311 306 311 315 314 314 315 319 323 324 324 323 321 320 319 318 317 316 314 312 310 309 308 309 308 308 308 307 306 305 304 306 309 313 315
317 320 320 320 320 319 318 317 316 314 316 316 316 309 307 307 312 313 310 308 311 317 322 322 320 318 318 315 313 310 309 308 307 305 303 301 301 302 302 303 303 302 300 298 298 298 298 300 309
318 319 319 318 317 317 317 317 316 316 315 315 312 305 305 305 312 310 309 306 308 313 317 317 316 315 313 311 311 311 309 307 303 296 296 297 298 295 291 292 293 294 294 294 295 295 295 296 301
318 320 317 317 317 318 317 315 314 315 315 314 315 305 303 304 310 311 309 307 307 311 313 312 312 310 310 309 310 306 301 295 294 294 294 293 292 293 292 292 292 292 292 292 292 292 292 294 297
318 318 318 318 317 316 316 315 314 313 314 314 313 308 304 304 307 311 309 309 307 306 309 308 309 309 309 307 305 302 294 292 292 292 292 292 292 292 292 292 292 292 292 292 291 291 291 291 293
315 316 316 316 316 315 315 315 314 314 313 313 312 307 304 304 305 310 311 311 307 305 306 305 307 305 306 305 299 294 292 292 292 292 292 292 292 291 291 291 291 291 291 291 291 291 291 291 291
315 315 316 315 316 316 315 314 314 313 313 313 312 310 306 305 305 307 311 311 307 305 304 304 304 303 302 295 294 293 292 292 291 291 291 291 291 291 291 291 290 290 290 290 291 291 291 291 291
313 315 314 314 314 315 314 314 314 313 312 313 313 311 310 307 307 306 308 311 308 305 304 303 303 301 300 294 293 292 292 291 290 290 290 290 290 290 290 290 290 289 290 290 290 291 291 291 291
312 313 314 313 313 313 313 315 313 311 312 312 312 312 310 310 307 307 307 309 310 305 304 302 301 299 295 293 292 291 290 290 289 289 289 289 289 289 289 289 289 289 290 290 290 290 290 291 291
311 312 312 312 313 313 312 313 311 308 309 309 310 309 309 309 307 307 306 306 308 307 304 302 299 297 294 292 291 290 290 289 289 288 288 288 288 289 289 288 288 288 289 289 289 290 290 291 291
312 311 311 312 312 311 312 311 310 309 308 307 307 307 308 308 306 306 305 304 306 305 303 301 298 295 293 291 290 289 289 289 288 288 287 287 287 287 287 287 287 288 288 288 289 288 290 289 289
310 311 312 310 311 309 308 308 309 309 309 309 308 303 300 302 305 305 303 302 302 302 300 298 296 293 291 290 289 289 289 288 288 287 287 286 286 287 286 286 286 287 287 287 288 288 288 289 290
310 311 310 311 311 309 308 309 309 309 308 301 300 299 299 299 302 302 301 300 299 300 298 296 294 292 290 290 289 289 289 288 288 287 287 286 287 287 286 286 286 286 286 286 287 287 287 287 288
310 310 310 309 307 308 306 306 307 303 300 300 298 298 298 298 299 300 299 298 298 297 296 295 293 291 290 290 289 289 289 288 287 287 286 286 286 286 286 286 286 286 286 286 286 286 287 287 286
305 302 305 307 306 309 306 306 305 303 301 299 296 295 295 296 298 298 298 297 297 296 295 294 292 291 290 290 290 289 288 287 287 286 286 286 285 285 285 285 285 285 285 285 285 285 286 287 286
302 300 301 302 304 304 306 305 304 304 304 298 295 295 294 294 295 296 296 296 296 295 294 293 292 291 290 290 290 289 288 288 287 286 285 285 285 285 284 284 284 284 284 284 284 284 284 285 285
297 300 301 301 301 305 304 306 308 305 303 298 296 295 294 294 293 294 294 295 294 294 293 292 291 290 290 289 289 288 288 288 287 285 285 285 284 284 284 284 284 284 283 283 283 283 283 283 284
297 302 310 309 306 308 303 304 305 301 298 297 294 293 292 292 293 292 292 292 292 292 292 291 290 289 289 288 288 288 288 287 286 285 285 284 284 283 283 283 283 283 283 283 283 283 282 282 283
299 302 310 313 311 310 304 305 306 295 293 292 292 292 294 293 292 292 291 291 291 291 291 290 289 289 288 288 288 288 287 286 285 285 284 284 284 283 283 283 283 283 282 282 282 282 282 282 282
301 302 303 306 306 305 305 303 298 296 296 294 294 296 294 293 292 292 291 291 290 290 290 289 289 288 288 287 287 287 286 286 285 284 284 283 283 283 282 282 282 282 281 281 281 281 281 281 281
302 300 304 304 301 303 301 303 299 295 295 294 293 294 293 293 292 292 291 291 290 289 289 289 289 288 287 287 286 286 285 285 284 283 283 283 282 282 282 282 281 281 281 280 280 281 281 281 281
300 302 301 301 300 296 297 297 300 295 295 296 296 296 296 294 293 291 291 290 290 289 289 288 289 287 287 286 285 285 284 284 283 283 284 283 284 286 283 281 281 281 280 280 280 280 281 281 280
300 301 301 299 297 303 301 296 299 300 297 296 295 295 294 293 292 291 290 290 289 289 288 287 287 286 286 285 285 284 283 282 282 284 285 286 285 282 281 280 280 280 280 280 280 280 280 280 280
Wind_Speed
6 7 6 4 2 4 6 8 10 11 1 4 6 7 4 6 3 4 11 8 25 22 24 20 18 18 18 18 18 17 18 17 17 18 18 19 20 21 22 21 22 22 22 21 20 17 13 10 11
5 9 7 3 3 6 7 14 14 8 6 8 7 6 4 4 6 8 9 15 23 23 23 20 19 18 17 16 16 15 18 18 18 16 17 15 18 19 18 19 19 21 20 17 15 13 14 13 12
8 12 2 4 4 11 6 7 5 6 7 3 3 3 6 3 9 14 9 23 23 22 21 21 19 18 17 17 18 18 18 16 16 17 17 16 17 17 17 17 18 18 17 16 15 12 12 10 11
8 2 3 4 13 11 16 12 6 5 4 2 1 2 5 5 3 13 22 23 25 21 19 22 21 19 18 18 18 17 19 18 17 18 17 16 16 16 14 15 15 17 17 17 16 13 10 8 8
12 3 5 7 16 15 16 14 9 7 4 8 4 3 4 4 14 20 22 21 21 23 18 22 21 20 18 18 17 17 18 19 18 18 17 17 17 17 17 18 17 17 16 16 16 14 11 8 9
3 3 5 12 16 17 16 15 14 6 6 3 8 5 5 14 15 20 19 18 18 18 23 22 21 20 18 18 17 18 20 20 20 20 19 19 18 18 18 17 17 17 17 17 15 13 9 8 10
8 5 8 11 15 14 12 8 8 7 6 7 8 5 5 7 15 19 18 17 18 19 22 22 21 20 21 20 20 20 22 23 22 22 21 21 19 19 17 17 16 15 14 15 15 14 11 9 10
3 4 10 14 15 21 12 4 4 7 3 3 6 3 5 12 21 21 20 15 16 18 23 24 25 25 25 24 24 23 24 23 23 22 20 20 19 17 17 17 16 16 16 13 12 13 14 12 11
4 4 10 21 14 20 9 3 5 4 2 1 3 5 10 29 25 23 21 16 16 19 25 26 28 29 30 29 26 24 23 23 20 18 16 13 12 14 16 16 16 15 15 14 14 13 13 13 14
8 7 13 10 12 8 9 0 2 4 5 5 6 8 22 24 23 19 18 16 18 22 26 27 30 31 31 28 22 18 14 10 11 13 11 13 11 12 15 16 15 14 15 14 13 11 11 11 9
10 15 14 15 11 4 7 7 7 4 6 9 8 15 16 17 19 19 18 18 19 26 28 28 31 30 30 26 22 16 14 16 14 13 9 10 11 12 11 12 12 13 11 11 11 9 9 8 10
13 17 17 17 18 13 7 6 9 9 12 8 7 18 16 17 16 20 22 25 23 25 28 28 34 33 29 25 18 15 15 16 14 12 12 11 12 11 11 11 10 11 11 10 11 11 12 11 10
18 19 16 12 9 11 7 12 11 8 14 6 9 16 17 13 13 21 24 25 26 27 26 28 31 28 25 21 18 15 15 14 14 15 14 11 11 11 11 11 10 10 11 12 11 11 10 10 10
8 18 14 13 13 15 11 11 7 10 9 13 11 12 14 14 14 20 24 27 29 28 29 29 29 26 23 22 19 18 17 14 13 13 15 13 12 12 11 11 9 10 10 10 11 11 11 11 10
12 10 9 9 11 11 4 10 11 17 11 10 9 10 11 12 19 19 24 26 32 31 30 30 30 26 25 22 20 21 19 16 15 13 13 13 13 12 13 11 10 11 12 11 11 12 11 12 12
5 6 8 8 19 13 11 9 10 12 10 10 7 8 10 10 13 22 27 28 31 33 33 29 27 28 26 25 23 21 19 17 15 14 14 14 13 12 12 11 12 11 11 9 11 11 10 11 11
9 7 13 14 14 6 8 4 7 5 5 5 7 8 8 8 7 19 26 27 30 32 34 32 28 29 26 25 23 21 19 18 16 15 14 14 14 11 11 11 12 10 11 12 9 12 10 10 11
8 14 14 12 6 7 8 9 9 7 5 7 7 7 9 11 11 16 24 26 27 30 31 31 28 27 27 27 24 23 21 18 16 14 13 14 14 12 12 12 13 12 11 12 11 11 10 12 9
14 15 15 11 3 6 9 9 9 10 8 9 7 10 10 9 9 18 23 24 25 26 29 30 28 27 27 28 28 26 24 20 18 14 14 14 14 13 12 14 13 11 11 11 10 12 9 10 8
16 15 16 9 10 3 6 10 9 9 1 8 10 10 9 7 7 11 20 22 24 25 29 29 27 28 27 27 26 26 25 21 20 18 15 14 15 13 13 13 13 12 13 12 11 10 9 10 5
10 9 7 8 5 3 3 8 14 4 12 12 12 9 9 8 6 10 10 17 20 22 26 27 27 28 24 24 24 24 24 22 22 19 17 15 16 15 15 13 14 14 11 12 11 9 12 7 8
7 6 4 4 3 2 3 5 3 7 11 12 9 8 8 10 9 7 9 12 17 19 23 26 26 27 23 24 26 30 25 24 22 21 19 16 14 15 15 15 14 14 12 12 11 9 9 12 8
3 5 5 4 2 5 4 3 5 14 6 5 5 7 7 7 8 7 7 14 13 17 21 24 25 26 23 23 23 24 22 21 23 21 20 17 15 14 14 13 13 14 12 11 12 10 10 10 10
3 0 3 2 3 3 8 10 3 3 2 3 6 6 6 6 6 6 9 12 12 15 20 23 26 25 22 23 22 21 23 27 25 25 21 19 16 14 14 13 12 12 11 11 9 9 8 9 8
3 3 1 1 1 5 4 5 1 4 3 5 5 4 4 4 6 6 6 8 12 14 17 20 25 23 21 21 21 20 22 25 25 24 22 20 17 14 13 11 11 11 10 9 9 8 7 7 7
6 1 3 4 4 2 4 4 3 2 3 3 4 3 6 4 5 6 6 8 9 12 14 17 23 21 20 18 20 17 24 24 24 22 21 18 16 13 13 12 11 9 8 7 7 6 5 5 5
1 2 2 2 4 1 4 3 4 3 3 4 4 8 7 6 5 6 7 9 11 10 13 16 20 21 22 19 18 21 23 23 23 21 19 18 16 13 12 10 9 7 6 5 4 5 3 3 2
2 4 1 1 2 4 4 2 4 4 4 3 4 5 4 6 6 5 6 9 13 13 12 13 20 22 22 21 22 23 22 23 23 22 19 16 15 12 11 9 8 7 6 5 3 3 2 2 1
1 2 0 2 3 3 1 4 4 6 6 8 4 4 6 5 4 6 8 8 9 14 15 12 17 24 22 23 23 24 23 23 22 22 16 14 10 8 10 9 9 7 6 5 3 2 2 3 2
2 2 2 3 3 2 1 4 3 7 6 4 3 4 5 6 7 6 8 15 16 14 15 15 19 22 23 26 27 25 24 25 23 16 13 12 11 11 10 10 9 8 7 6 5 5 4 5 5
Wind_Direction
211 188 232 184 225 224 251 238 243 266 125 16 36 35 337 15 338 174 129 130 149 145 156 139 142 139 132 124 120 116 112 104 103 100 96 91 92 89 92 90 91 98 99 100 104 98 102 102 97
191 220 233 260 229 237 240 231 241 252 90 65 47 357 351 68 92 118 120 136 148 147 154 153 146 141 135 133 133 122 113 106 103 103 101 98 93 88 92 89 90 93 95 96 112 110 105 87 84
211 214 241 207 217 234 246 267 66 85 75 90 114 64 335 90 104 150 157 143 149 149 157 156 150 139 139 134 134 129 127 124 118 114 107 101 94 93 90 92 89 87 93 92 96 119 121 112 107
204 204 287 255 249 242 234 262 116 94 67 55 217 253 78 19 108 141 148 148 152 159 158 153 149 140 137 137 133 128 126 120 113 110 110 108 101 95 96 95 95 90 91 86 92 94 120 124 117
218 249 230 230 247 262 280 286 161 168 179 155 207 226 95 70 108 131 145 152 146 160 157 155 151 146 142 139 135 130 126 120 117 110 105 104 100 100 95 90 89 85 85 82 82 87 95 115 117
214 241 223 229 247 247 243 240 255 184 202 214 160 278 113 128 131 141 145 148 154 145 155 156 153 151 147 138 134 130 125 121 116 112 109 103 97 93 89 87 88 86 80 78 77 78 101 126 132
236 228 240 255 260 271 277 314 322 177 218 222 166 197 108 146 147 141 144 141 162 150 148 152 151 150 142 140 135 127 121 118 116 112 109 105 103 98 96 87 83 82 85 81 79 77 82 112 130
227 249 260 249 249 262 267 352 37 28 349 21 167 226 169 163 150 142 140 145 158 153 156 150 148 143 138 128 125 118 113 114 113 112 110 108 103 101 98 99 96 89 84 82 78 79 77 87 102
238 246 231 237 238 261 259 183 101 129 29 57 85 68 110 139 148 142 138 150 158 151 151 149 144 139 139 128 119 111 107 107 110 113 108 104 117 119 109 95 91 89 85 80 78 75 70 72 90
208 224 241 260 258 278 324 233 219 149 182 222 120 108 128 145 158 152 156 158 160 157 150 148 147 146 145 142 142 143 142 151 131 106 124 137 134 109 100 94 82 86 76 74 74 80 88 104 104
212 236 234 254 279 336 311 305 292 228 245 244 205 163 155 162 176 168 172 172 165 162 157 151 152 149 153 155 160 158 155 141 138 139 142 123 107 85 73 77 75 66 66 76 77 85 95 103 98
240 224 236 258 276 291 271 284 260 256 234 226 304 150 162 173 181 181 175 169 164 164 162 161 160 161 163 161 157 152 145 143 143 141 126 130 124 120 117 105 99 106 85 76 71 74 73 77 100
229 238 251 256 251 247 275 267 247 271 268 250 245 139 166 179 182 187 178 172 163 163 164 164 167 164 164 158 154 146 145 147 153 146 138 135 128 123 119 117 116 109 117 106 96 81 81 79 82
238 230 256 245 258 265 242 253 253 247 255 253 244 161 170 176 181 180 180 172 168 168 167 165 166 166 161 151 149 151 145 158 152 146 143 144 138 129 118 108 106 110 106 109 113 109 95 86 85
291 279 293 245 256 257 266 259 245 252 239 265 267 166 168 180 177 184 183 177 170 170 167 167 166 167 165 155 154 155 162 156 156 150 141 136 132 130 125 120 112 97 92 90 87 94 97 99 93
289 279 259 232 233 236 171 250 280 254 215 234 237 162 178 187 181 181 183 181 172 167 168 165 165 165 162 158 161 162 156 156 150 142 141 137 128 125 125 126 108 101 92 98 106 90 95 99 102
231 249 234 247 239 128 170 221 275 102 139 229 189 200 188 173 156 175 175 178 176 166 165 165 166 164 161 161 157 160 150 151 146 149 147 139 131 131 131 119 110 111 111 99 86 106 95 94 96
214 233 236 241 181 171 188 243 270 257 209 215 232 232 182 168 171 165 163 168 168 169 166 166 167 165 162 159 156 151 150 146 148 145 143 135 129 124 117 111 104 96 99 99 90 90 112 96 90
267 279 281 292 163 154 211 234 240 248 255 249 236 34 45 25 136 149 148 156 162 167 164 163 163 165 161 156 151 150 149 149 143 147 137 134 125 118 117 109 110 117 104 100 102 95 99 115 107
263 261 253 275 275 179 233 258 257 254 329 62 59 46 35 20 79 124 137 151 165 164 163 165 166 170 164 165 166 160 154 148 147 142 138 135 130 120 116 116 108 100 102 97 99 93 89 79 97
253 260 271 251 354 235 260 281 246 47 92 64 52 47 29 17 4 127 128 148 159 162 166 168 168 167 165 165 160 154 148 146 142 143 139 139 135 134 128 123 121 112 107 99 92 94 85 91 64
242 5 30 50 56 229 63 280 340 136 83 54 39 39 22 9 29 70 107 133 156 164 168 168 170 167 168 169 165 158 151 145 151 149 144 138 137 135 131 125 123 117 110 101 87 91 92 92 79
96 28 45 38 310 324 215 244 249 134 75 43 54 52 38 27 33 51 89 123 137 158 165 167 168 167 169 172 169 159 156 153 152 151 145 140 142 137 130 127 120 116 118 111 103 99 88 87 81
100 239 173 129 172 250 196 195 279 76 134 100 81 69 54 49 57 57 79 114 123 142 154 158 161 166 172 170 168 164 160 154 150 147 146 146 144 139 135 127 123 118 111 110 110 103 103 95 87
189 193 222 250 190 239 15 190 175 118 77 124 114 69 81 17 92 87 87 105 129 139 150 155 161 166 171 165 170 168 164 156 153 152 152 149 147 146 138 132 124 123 127 124 115 110 98 100 95
191 198 198 239 179 190 342 237 234 101 102 106 132 177 113 78 87 103 120 123 127 145 158 158 165 168 170 169 176 171 157 155 155 156 154 154 151 150 150 147 145 151 147 138 128 116 103 95 97
127 202 53 320 212 3 205 87 25 132 97 80 89 96 93 111 116 128 128 138 147 158 169 171 172 173 171 176 169 152 153 157 156 159 158 154 156 156 154 155 154 149 145 136 127 116 101 103 109
23 336 108 278 219 232 267 197 178 170 168 138 107 123 112 136 144 139 132 145 155 171 175 174 180 174 172 174 163 155 154 156 158 156 152 153 152 156 164 167 168 164 161 151 146 144 167 165 144
118 198 305 94 138 200 306 283 331 190 163 139 128 126 135 142 108 149 139 135 126 150 169 179 169 170 169 169 160 161 165 165 160 157 157 170 170 196 194 188 184 190 180 170 168 173 226 258 235
69 335 80 149 293 66 184 275 6 84 107 107 110 60 81 96 110 111 134 152 160 162 159 163 161 168 170 170 166 166 161 159 156 154 169 197 204 191 192 187 190 189 191 191 196 214 232 251 257